[[{"header":{"parameterUnit":"m.s-1","parameterCategory":1,"la1":30.2991,"la2":30.254,"lo1":-89.0895,"lo2":-89.0444,"dy":0.0017,"dx":0.0017,"nx":28,"ny":28,"refTime":"2024-06-16T03:00:00:Z","depth":0,"parameterNumber":2,"parameterNumberName":"U-component_of_WINDS"},"data":[0,0,0,0,0,0,0,0,0,0,0,0,0,0,0,0,0,0,0,0,0,0,0,0,0,0,0,0,0,0,0,0,0,0,0,0,0,0,0,0,0,0,0,0,0,0,0,0,0,0,0,0,0,0,0,0,0,0,0.2297,0.2299,0,0.2432,0.2434,0.2435,0.2465,0.2464,0.2463,0.2462,0.2604,0.2609,0.2614,0,0,0,0,0,0,0,0,0,0,0,0,0,0.2069,0.2073,0.2297,0.2299,0.23,0.2432,0.2434,0.2436,0.2465,0.2464,0.2463,0.2462,0.2603,0.2608,0.2614,0,0,0,0,0,0,0,0,0,0,0,0,0,0.2182,0.2074,0.2297,0.2331,0.2335,0.2432,0.2434,0.2436,0.2466,0.2464,0.2463,0.2461,0.2601,0.2608,0.2615,0.2688,0,0,0.2636,0.2639,0,0,0,0,0,0,0,0,0.2176,0.2191,0.2324,0.2329,0.2334,0.243,0.2406,0.2521,0.2466,0.2416,0.2462,0.2461,0.2548,0.2559,0.2588,0.2694,0.27,0.2637,0.2641,0.2644,0.2646,0,0,0,0,0,0,0,0.2168,0.2185,0.2351,0.2326,0.2332,0.2341,0.2356,0.2428,0.2489,0.2421,0.2423,0.2438,0.255,0.2581,0.2591,0.2702,0.2637,0.2643,0.2647,0.265,0.2877,0.2879,0,0,0,0,0,0,0.2154,0.2178,0.2346,0.2355,0.225,0.2346,0.2363,0.2401,0.2488,0.25,0.244,0.2439,0.257,0.2583,0.2597,0.2688,0.2644,0.2651,0.2655,0.2875,0.2877,0.2879,0,0,0,0,0,0,0.2149,0.2168,0.2341,0.2267,0.229,0.2352,0.2395,0.2404,0.2435,0.2502,0.2514,0.2459,0.2569,0.2587,0.2665,0.2694,0.2654,0.266,0.2873,0.2876,0.2878,0.2871,0,0,0,0,0,0,0.2142,0.2166,0.2193,0.2268,0.2294,0.2406,0.2397,0.2408,0.2447,0.2448,0.2524,0.2535,0.2569,0.2654,0.2672,0.2702,0.2666,0.2871,0.2874,0.2877,0.2869,0.2874,0.2877,0,0,0,0,0,0.2134,0.2187,0.2195,0.2215,0.2329,0.2407,0.2422,0.2459,0.2449,0.2478,0.2521,0.2533,0.2688,0.2662,0.2682,0.2715,0.2869,0.2873,0.2877,0.2868,0.2873,0.2877,0,0,0,0,0,0,0.2115,0.2197,0.2207,0.2285,0.2339,0.2412,0.2449,0.2463,0.2522,0.252,0.2565,0.2582,0.2658,0.2695,0.2664,0.2791,0.2778,0.2786,0.2764,0.2769,0.2773,0.2763,0.2672,0,0,0,0,0,0.212,0.2175,0.2244,0.2307,0.2333,0.2386,0.2422,0.2446,0.2504,0.2527,0.2576,0.2633,0.2695,0.2734,0.2794,0.2875,0.2893,0.2908,0.2912,0.2915,0.2922,0.2968,0.2976,0.2893,0.2893,0.2892,0,0,0.2131,0.2182,0.2215,0.2305,0.2349,0.2407,0.2405,0.2466,0.251,0.2537,0.2613,0.2651,0.2718,0.2798,0.2836,0.2831,0.2949,0.292,0.2922,0.2927,0.2973,0.2981,0.2988,0.2895,0.2895,0.2894,0,0,0.218,0.2224,0.2281,0.2326,0.2393,0.2428,0.2442,0.2514,0.254,0.2617,0.2638,0.2692,0.2797,0.2844,0.2881,0.295,0.2963,0.2968,0.2989,0.3034,0.304,0.3046,0.3071,0.308,0.2975,0.2975,0.2975,0,0.2185,0.2271,0.2309,0.2369,0.2409,0.2435,0.2494,0.2536,0.262,0.2647,0.2641,0.2773,0.282,0.2912,0.2929,0.2958,0.2976,0.2959,0.3036,0.3042,0.3049,0.3073,0.3082,0.2975,0.2975,0.2975,0.2975,0,0.2275,0.2335,0.2373,0.2452,0.2497,0.2556,0.2604,0.2645,0.2665,0.2702,0.2781,0.2838,0.2911,0.2935,0.2955,0.303,0.3025,0.3027,0.3015,0.3056,0.308,0.309,0.2975,0.2975,0.2975,0.2975,0,0,0.2314,0.2414,0.2428,0.2465,0.2542,0.259,0.2651,0.2721,0.2756,0.2813,0.2867,0.2955,0.2958,0.3,0.3027,0.3067,0.3118,0.3064,0.3066,0.3072,0.3205,0.3203,0.3213,0.3128,0.313,0.3132,0.32,0,0.2372,0.2481,0.2518,0.2609,0.2666,0.2693,0.2747,0.28,0.2837,0.2891,0.2932,0.2994,0.2992,0.3018,0.3059,0.3103,0.3146,0.3099,0.3179,0.3182,0.3162,0.3226,0.3224,0.3285,0.3209,0.3211,0.3212,0,0.2454,0.2513,0.2609,0.268,0.2705,0.2753,0.2821,0.2872,0.2935,0.2959,0.3007,0.3031,0.3098,0.3082,0.3176,0.3144,0.3179,0.3206,0.321,0.3218,0.3199,0.3237,0.3306,0.3315,0.3227,0.3226,0.3225,0,0.2474,0.2576,0.2648,0.2679,0.2763,0.2796,0.2833,0.2894,0.2934,0.2995,0.3022,0.3089,0.3126,0.3179,0.3222,0.3206,0.3312,0.3299,0.3335,0.3334,0.3355,0.3353,0.3431,0.3378,0.3378,0.3378,0.3378,0,0.2535,0.2593,0.2658,0.2701,0.2768,0.2811,0.2876,0.2915,0.2969,0.3022,0.305,0.31,0.3153,0.321,0.3244,0.3317,0.3333,0.3355,0.3364,0.3353,0.335,0.3377,0.3373,0.338,0.338,0.3379,0.3379,0,0.2567,0.2613,0.2692,0.2766,0.2786,0.2832,0.2896,0.294,0.2978,0.3045,0.3064,0.3124,0.3192,0.324,0.3328,0.3351,0.3431,0.3438,0.3409,0.3413,0.3446,0.3442,0.3543,0.3559,0.3495,0.3496,0.3496,0,0.2602,0.2648,0.2727,0.2764,0.2801,0.286,0.2902,0.2946,0.2989,0.3064,0.31,0.3171,0.3229,0.3338,0.339,0.3459,0.3469,0.3499,0.3479,0.3467,0.347,0.3466,0.3472,0.3502,0.3503,0.3503,0.3503,0,0.2661,0.2682,0.274,0.2806,0.2855,0.291,0.2965,0.2994,0.3049,0.3096,0.3166,0.3211,0.3302,0.3372,0.3446,0.3486,0.3504,0.351,0.3522,0.3511,0.3492,0.3503,0.3418,0.3507,0.3507,0.3506,0.3506,0.3506,0.2696,0.2738,0.28,0.2865,0.2911,0.2963,0.3008,0.3052,0.3111,0.3188,0.3211,0.3284,0.3348,0.3449,0.349,0.3549,0.3547,0.3564,0.3568,0.3572,0.3572,0.3483,0.3563,0.3563,0.3563,0.3563,0.3563,0,0.2756,0.2798,0.2857,0.2933,0.2984,0.2997,0.306,0.3102,0.3166,0.3223,0.328,0.3362,0.3431,0.3489,0.356,0.3597,0.3607,0.3614,0.3612,0.3621,0.3569,0.3552,0.3604,0.3604,0.3604,0.3604,0.3604,0.3604,0.2793,0.2865,0.2894,0.299,0.3032,0.3103,0.3138,0.3186,0.3232,0.3322,0.3379,0.3416,0.3475,0.3551,0.3615,0.3631,0.3656,0.3661,0.3679,0.3629,0.3624,0.362,0.3604,0.3666,0.3666,0.3726,0.3726,0.3727]},{"header":{"parameterUnit":"m.s-1","parameterCategory":1,"la1":30.2991,"la2":30.254,"lo1":-89.0895,"lo2":-89.0444,"dy":0.0017,"dx":0.0017,"nx":28,"ny":28,"refTime":"2024-06-16T03:00:00:Z","depth":0,"parameterNumber":3,"parameterNumberName":"V-component_of_WINDS"},"data":[0,0,0,0,0,0,0,0,0,0,0,0,0,0,0,0,0,0,0,0,0,0,0,0,0,0,0,0,0,0,0,0,0,0,0,0,0,0,0,0,0,0,0,0,0,0,0,0,0,0,0,0,0,0,0,0,0,0,6.5157,6.5155,0,6.4977,6.4975,6.4973,6.4759,6.4756,6.4753,6.4749,6.456,6.4558,6.4556,0,0,0,0,0,0,0,0,0,0,0,0,0,6.531,6.5308,6.5157,6.5155,6.5153,6.4978,6.4975,6.4973,6.476,6.4756,6.4752,6.4748,6.456,6.4558,6.4555,0,0,0,0,0,0,0,0,0,0,0,0,0,6.5199,6.5308,6.5158,6.5026,6.5012,6.4978,6.4975,6.4972,6.4761,6.4756,6.4751,6.4746,6.4561,6.4558,6.4555,6.4635,0,0,6.4546,6.4545,0,0,0,0,0,0,0,0,6.5205,6.5193,6.5047,6.5035,6.5019,6.4886,6.4959,6.4859,6.4762,6.4856,6.4749,6.4744,6.4672,6.4659,6.4636,6.4626,6.4618,6.4546,6.4544,6.4543,6.4542,0,0,0,0,0,0,0,6.5213,6.52,6.5086,6.5045,6.5028,6.4973,6.4952,6.4939,6.4793,6.4847,6.4831,6.4813,6.4663,6.464,6.463,6.4615,6.4546,6.4543,6.4541,6.454,6.4659,6.4663,0,0,0,0,0,0,6.5242,6.5207,6.5092,6.508,6.5102,6.4975,6.4951,6.4934,6.4793,6.4767,6.4818,6.4804,6.4647,6.4634,6.4623,6.4705,6.4543,6.454,6.4538,6.4654,6.466,6.4665,0,0,0,0,0,0,6.5246,6.5233,6.5099,6.514,6.5118,6.4977,6.496,6.4933,6.4909,6.4771,6.4743,6.4821,6.4643,6.4627,6.4633,6.4695,6.4538,6.4536,6.4648,6.4656,6.4663,6.4872,0,0,0,0,0,0,6.5251,6.5236,6.5266,6.5142,6.5117,6.5115,6.4963,6.4933,6.4905,6.4885,6.4766,6.4742,6.4638,6.4639,6.4631,6.4688,6.4533,6.4642,6.4651,6.466,6.4858,6.4885,6.4908,0,0,0,0,0,6.5257,6.5332,6.5269,6.5256,6.5152,6.5119,6.5105,6.4985,6.4911,6.4939,6.485,6.4746,6.4691,6.4642,6.463,6.4688,6.4637,6.4649,6.4659,6.4847,6.488,6.4908,0,0,0,0,0,0,6.5465,6.5313,6.5242,6.5279,6.5214,6.5083,6.5115,6.5024,6.4977,6.496,6.4812,6.4787,6.4811,6.475,6.4698,6.4756,6.4648,6.4658,6.4795,6.4825,6.485,6.4862,6.4531,0,0,0,0,0,6.5516,6.5504,6.537,6.5416,6.5387,6.5258,6.5239,6.5152,6.5078,6.5049,6.496,6.4891,6.4857,6.4838,6.48,6.4849,6.4818,6.4883,6.4908,6.4929,6.4938,6.4957,6.4983,6.4702,6.4702,6.4701,0,0,6.562,6.5535,6.5536,6.5456,6.5395,6.5383,6.5236,6.523,6.5219,6.5047,6.5048,6.4981,6.4893,6.4921,6.4929,6.4871,6.501,6.4943,6.4961,6.4958,6.4971,6.4998,6.5022,6.4709,6.4708,6.4707,0,0,6.5802,6.5738,6.5768,6.5711,6.5621,6.5534,6.5542,6.5425,6.5375,6.5374,6.5244,6.5228,6.5174,6.5116,6.508,6.5241,6.5142,6.5232,6.5361,6.5381,6.5403,6.5422,6.5477,6.5499,6.5242,6.5243,6.5243,0,6.5941,6.592,6.5794,6.5796,6.5764,6.561,6.5637,6.5587,6.549,6.547,6.5407,6.5336,6.5266,6.5277,6.5317,6.5293,6.5295,6.5244,6.5411,6.5429,6.5444,6.5494,6.5516,6.5254,6.5253,6.5252,6.5251,0,6.6095,6.6083,6.6117,6.6028,6.6,6.6015,6.5889,6.5875,6.5791,6.5711,6.571,6.5622,6.5562,6.5558,6.5476,6.5557,6.5524,6.5439,6.5326,6.5485,6.5529,6.5548,6.5271,6.5267,6.5263,6.526,0,0,6.6402,6.6244,6.6258,6.6215,6.6106,6.6092,6.61,6.6043,6.6033,6.5971,6.5971,6.593,6.585,6.5809,6.5718,6.5737,6.5867,6.5648,6.5643,6.5689,6.5947,6.601,6.6035,6.5802,6.5805,6.5807,6.5953,0,6.6562,6.6567,6.6454,6.6489,6.6474,6.6328,6.6334,6.6266,6.6192,6.6166,6.6082,6.6054,6.5952,6.5926,6.5938,6.5849,6.5916,6.5837,6.5797,6.5797,6.5821,6.6059,6.6125,6.6268,6.597,6.5973,6.5975,0,6.6749,6.67,6.6734,6.6622,6.6611,6.6619,6.6557,6.6536,6.6456,6.6399,6.6355,6.6252,6.6248,6.6145,6.6136,6.6085,6.6062,6.6016,6.6018,6.6007,6.5894,6.6052,6.631,6.6331,6.6002,6.6,6.5998,0,6.6967,6.6908,6.6921,6.6889,6.6759,6.6768,6.6714,6.6628,6.6601,6.6546,6.6526,6.6472,6.6442,6.6401,6.6285,6.6221,6.6289,6.6176,6.6239,6.6242,6.6258,6.6258,6.6514,6.6249,6.6248,6.6248,6.6248,0,6.7156,6.7182,6.7016,6.7024,6.7048,6.6917,6.6944,6.6875,6.6801,6.679,6.6661,6.6653,6.6503,6.6478,6.6387,6.6392,6.638,6.6332,6.6307,6.6342,6.6348,6.6323,6.6309,6.6253,6.6252,6.6251,6.625,0,6.7402,6.7292,6.7296,6.7173,6.7143,6.7166,6.7059,6.706,6.6978,6.6966,6.6956,6.6825,6.6789,6.6671,6.6604,6.6543,6.6575,6.6529,6.6603,6.6586,6.6655,6.6649,6.6902,6.6927,6.665,6.6652,6.6655,0,6.7528,6.7545,6.7425,6.741,6.7362,6.7339,6.7311,6.7182,6.7157,6.7067,6.7078,6.7032,6.6987,6.6935,6.6833,6.6781,6.6731,6.6824,6.6722,6.6756,6.6729,6.6728,6.6728,6.6845,6.6848,6.6851,6.6854,0,6.7764,6.7709,6.7674,6.7621,6.7592,6.7543,6.7486,6.7481,6.7336,6.7315,6.7278,6.7244,6.7177,6.7131,6.7063,6.7003,6.6904,6.6887,6.6898,6.6933,6.6973,6.6949,6.6659,6.6881,6.6878,6.6876,6.6875,6.6874,6.7951,6.7959,6.7875,6.7841,6.7785,6.7735,6.7729,6.7647,6.7614,6.755,6.7476,6.7447,6.7363,6.7261,6.721,6.7183,6.7129,6.7146,6.715,6.7155,6.7171,6.6981,6.717,6.7169,6.7168,6.7167,6.7167,0,6.8178,6.8117,6.8087,6.8013,6.7985,6.7897,6.783,6.7811,6.7788,6.772,6.768,6.7635,6.759,6.7485,6.743,6.7428,6.7381,6.7418,6.7415,6.7402,6.7224,6.7218,6.7457,6.7457,6.7457,6.7457,6.7456,6.7456,6.8292,6.83,6.8235,6.8213,6.815,6.8122,6.8091,6.8044,6.7988,6.7945,6.7908,6.7841,6.7757,6.7694,6.7648,6.7618,6.7602,6.7653,6.7608,6.7443,6.7415,6.7389,6.7383,6.7652,6.7652,6.7788,6.7789,6.779]}]]